Year,Month,Day,Hour,Minute,Value (Times are PST for temperature in C)
2016,06,17,00,00,11.70
2016,06,17,00,01,11.70
2016,06,17,00,02,11.70
2016,06,17,00,03,11.60
2016,06,17,00,04,11.60
2016,06,17,00,05,11.60
2016,06,17,00,06,11.60
2016,06,17,00,07,11.50
2016,06,17,00,08,11.50
2016,06,17,00,09,11.50
2016,06,17,00,10,11.40
2016,06,17,00,11,11.40
2016,06,17,00,12,11.30
2016,06,17,00,13,11.30
2016,06,17,00,14,11.20
2016,06,17,00,15,11.20
2016,06,17,00,16,11.20
2016,06,17,00,17,11.10
2016,06,17,00,18,11.10
2016,06,17,00,19,11.00
2016,06,17,00,20,10.90
2016,06,17,00,21,10.90
2016,06,17,00,22,10.80
2016,06,17,00,23,10.80
2016,06,17,00,24,10.70
2016,06,17,00,25,10.70
2016,06,17,00,26,10.70
2016,06,17,00,27,10.60
2016,06,17,00,28,10.60
2016,06,17,00,29,10.60
2016,06,17,00,30,10.60
2016,06,17,00,31,10.50
2016,06,17,00,32,10.50
2016,06,17,00,33,10.40
2016,06,17,00,34,10.40
2016,06,17,00,35,10.40
2016,06,17,00,36,10.40
2016,06,17,00,37,10.30
2016,06,17,00,38,10.30
2016,06,17,00,39,10.30
2016,06,17,00,40,10.30
2016,06,17,00,41,10.20
2016,06,17,00,42,10.20
2016,06,17,00,43,10.20
2016,06,17,00,44,10.20
2016,06,17,00,45,10.20
2016,06,17,00,46,10.20
2016,06,17,00,47,10.20
2016,06,17,00,48,10.20
2016,06,17,00,49,10.10
2016,06,17,00,50,10.10
2016,06,17,00,51,10.00
2016,06,17,00,52,10.00
2016,06,17,00,53,9.90
2016,06,17,00,54,9.90
2016,06,17,00,55,9.80
2016,06,17,00,56,9.80
2016,06,17,00,57,9.70
2016,06,17,00,58,9.70
2016,06,17,00,59,9.70
2016,06,17,01,00,9.60
2016,06,17,01,01,9.60
2016,06,17,01,02,9.50
2016,06,17,01,03,9.50
2016,06,17,01,04,9.40
2016,06,17,01,05,9.40
2016,06,17,01,06,9.40
2016,06,17,01,07,9.30
2016,06,17,01,08,9.30
2016,06,17,01,09,9.30
2016,06,17,01,10,9.30
2016,06,17,01,11,9.20
2016,06,17,01,12,9.20
2016,06,17,01,13,9.20
2016,06,17,01,14,9.20
2016,06,17,01,15,9.10
2016,06,17,01,16,9.10
2016,06,17,01,17,9.10
2016,06,17,01,18,9.10
2016,06,17,01,19,9.10
2016,06,17,01,20,9.10
2016,06,17,01,21,9.10
2016,06,17,01,22,9.10
2016,06,17,01,23,9.10
2016,06,17,01,24,9.10
2016,06,17,01,25,9.10
2016,06,17,01,26,9.00
2016,06,17,01,27,9.00
2016,06,17,01,28,9.00
2016,06,17,01,29,8.90
2016,06,17,01,30,8.90
2016,06,17,01,31,8.90
2016,06,17,01,32,8.90
2016,06,17,01,33,8.90
2016,06,17,01,34,8.80
2016,06,17,01,35,8.80
2016,06,17,01,36,8.80
2016,06,17,01,37,8.80
2016,06,17,01,38,8.70
2016,06,17,01,39,8.70
2016,06,17,01,40,8.70
2016,06,17,01,41,8.70
2016,06,17,01,42,8.60
2016,06,17,01,43,8.60
2016,06,17,01,44,8.60
2016,06,17,01,45,8.60
2016,06,17,01,46,8.50
2016,06,17,01,47,8.50
2016,06,17,01,48,8.40
2016,06,17,01,49,8.40
2016,06,17,01,50,8.40
2016,06,17,01,51,8.30
2016,06,17,01,52,8.30
2016,06,17,01,53,8.30
2016,06,17,01,54,8.30
2016,06,17,01,55,8.20
2016,06,17,01,56,8.20
2016,06,17,01,57,8.20
2016,06,17,01,58,8.10
2016,06,17,01,59,8.10
2016,06,17,02,00,8.00
2016,06,17,02,01,8.00
2016,06,17,02,02,7.90
2016,06,17,02,03,7.90
2016,06,17,02,04,7.90
2016,06,17,02,05,7.90
2016,06,17,02,06,7.90
2016,06,17,02,07,7.90
2016,06,17,02,08,7.90
2016,06,17,02,09,7.90
2016,06,17,02,10,7.90
2016,06,17,02,11,7.90
2016,06,17,02,12,7.90
2016,06,17,02,13,7.90
2016,06,17,02,14,7.80
2016,06,17,02,15,7.80
2016,06,17,02,16,7.80
2016,06,17,02,17,7.80
2016,06,17,02,18,7.80
2016,06,17,02,19,7.80
2016,06,17,02,20,7.80
2016,06,17,02,21,7.80
2016,06,17,02,22,7.80
2016,06,17,02,23,7.80
2016,06,17,02,24,7.80
2016,06,17,02,25,7.80
2016,06,17,02,26,7.80
2016,06,17,02,27,7.70
2016,06,17,02,28,7.70
2016,06,17,02,29,7.70
2016,06,17,02,30,7.70
2016,06,17,02,31,7.70
2016,06,17,02,32,7.70
2016,06,17,02,33,7.70
2016,06,17,02,34,7.70
2016,06,17,02,35,7.70
2016,06,17,02,36,7.70
2016,06,17,02,37,7.70
2016,06,17,02,38,7.70
2016,06,17,02,39,7.60
2016,06,17,02,40,7.60
2016,06,17,02,41,7.60
2016,06,17,02,42,7.60
2016,06,17,02,43,7.60
2016,06,17,02,44,7.50
2016,06,17,02,45,7.50
2016,06,17,02,46,7.40
2016,06,17,02,47,7.40
2016,06,17,02,48,7.40
2016,06,17,02,49,7.40
2016,06,17,02,50,7.40
2016,06,17,02,51,7.30
2016,06,17,02,52,7.30
2016,06,17,02,53,7.30
2016,06,17,02,54,7.30
2016,06,17,02,55,7.30
2016,06,17,02,56,7.30
2016,06,17,02,57,7.30
2016,06,17,02,58,7.20
2016,06,17,02,59,7.20
2016,06,17,03,00,7.20
2016,06,17,03,01,7.20
2016,06,17,03,02,7.20
2016,06,17,03,03,7.20
2016,06,17,03,04,7.20
2016,06,17,03,05,7.20
2016,06,17,03,06,7.20
2016,06,17,03,07,7.20
2016,06,17,03,08,7.20
2016,06,17,03,09,7.20
2016,06,17,03,10,7.20
2016,06,17,03,11,7.20
2016,06,17,03,12,7.10
2016,06,17,03,13,7.10
2016,06,17,03,14,7.10
2016,06,17,03,15,7.10
2016,06,17,03,16,7.10
2016,06,17,03,17,7.00
2016,06,17,03,18,7.00
2016,06,17,03,19,7.00
2016,06,17,03,20,6.90
2016,06,17,03,21,6.90
2016,06,17,03,22,6.90
2016,06,17,03,23,6.90
2016,06,17,03,24,6.90
2016,06,17,03,25,6.90
2016,06,17,03,26,6.90
2016,06,17,03,27,6.90
2016,06,17,03,28,6.90
2016,06,17,03,29,6.90
2016,06,17,03,30,6.80
2016,06,17,03,31,6.80
2016,06,17,03,32,6.80
2016,06,17,03,33,6.80
2016,06,17,03,34,6.80
2016,06,17,03,35,6.80
2016,06,17,03,36,6.80
2016,06,17,03,37,6.80
2016,06,17,03,38,6.80
2016,06,17,03,39,6.80
2016,06,17,03,40,6.80
2016,06,17,03,41,6.80
2016,06,17,03,42,6.80
2016,06,17,03,43,6.80
2016,06,17,03,44,6.80
2016,06,17,03,45,6.80
2016,06,17,03,46,6.80
2016,06,17,03,47,6.70
2016,06,17,03,48,6.70
2016,06,17,03,49,6.70
2016,06,17,03,50,6.70
2016,06,17,03,51,6.70
2016,06,17,03,52,6.70
2016,06,17,03,53,6.70
2016,06,17,03,54,6.70
2016,06,17,03,55,6.70
2016,06,17,03,56,6.70
2016,06,17,03,57,6.60
2016,06,17,03,58,6.60
2016,06,17,03,59,6.60
2016,06,17,04,00,6.60
2016,06,17,04,01,6.60
2016,06,17,04,02,6.60
2016,06,17,04,03,6.60
2016,06,17,04,04,6.60
2016,06,17,04,05,6.50
2016,06,17,04,06,6.50
2016,06,17,04,07,6.50
2016,06,17,04,08,6.50
2016,06,17,04,09,6.50
2016,06,17,04,10,6.50
2016,06,17,04,11,6.50
2016,06,17,04,12,6.50
2016,06,17,04,13,6.50
2016,06,17,04,14,6.50
2016,06,17,04,15,6.50
2016,06,17,04,16,6.50
2016,06,17,04,17,6.50
2016,06,17,04,18,6.50
2016,06,17,04,19,6.50
2016,06,17,04,20,6.50
2016,06,17,04,21,6.60
2016,06,17,04,22,6.50
2016,06,17,04,23,6.50
2016,06,17,04,24,6.50
2016,06,17,04,25,6.50
2016,06,17,04,26,6.50
2016,06,17,04,27,6.50
2016,06,17,04,28,6.50
2016,06,17,04,29,6.50
2016,06,17,04,30,6.50
2016,06,17,04,31,6.50
2016,06,17,04,32,6.60
2016,06,17,04,33,6.60
2016,06,17,04,34,6.60
2016,06,17,04,35,6.60
2016,06,17,04,36,6.60
2016,06,17,04,37,6.60
2016,06,17,04,38,6.60
2016,06,17,04,39,6.60
2016,06,17,04,40,6.60
2016,06,17,04,41,6.60
2016,06,17,04,42,6.60
2016,06,17,04,43,6.60
2016,06,17,04,44,6.60
2016,06,17,04,45,6.60
2016,06,17,04,46,6.60
2016,06,17,04,47,6.60
2016,06,17,04,48,6.60
2016,06,17,04,49,6.60
2016,06,17,04,50,6.60
2016,06,17,04,51,6.60
2016,06,17,04,52,6.60
2016,06,17,04,53,6.60
2016,06,17,04,54,6.60
2016,06,17,04,55,6.60
2016,06,17,04,56,6.60
2016,06,17,04,57,6.60
2016,06,17,04,58,6.60
2016,06,17,04,59,6.60
2016,06,17,05,00,6.60
2016,06,17,05,01,6.60
2016,06,17,05,02,6.60
2016,06,17,05,03,6.60
2016,06,17,05,04,6.60
2016,06,17,05,05,6.60
2016,06,17,05,06,6.60
2016,06,17,05,07,6.60
2016,06,17,05,08,6.60
2016,06,17,05,09,6.50
2016,06,17,05,10,6.50
2016,06,17,05,11,6.50
2016,06,17,05,12,6.40
2016,06,17,05,13,6.40
2016,06,17,05,14,6.40
2016,06,17,05,15,6.30
2016,06,17,05,16,6.30
2016,06,17,05,17,6.30
2016,06,17,05,18,6.30
2016,06,17,05,19,6.20
2016,06,17,05,20,6.20
2016,06,17,05,21,6.20
2016,06,17,05,22,6.20
2016,06,17,05,23,6.10
2016,06,17,05,24,6.10
2016,06,17,05,25,6.10
2016,06,17,05,26,6.10
2016,06,17,05,27,6.10
2016,06,17,05,28,6.10
2016,06,17,05,29,6.00
2016,06,17,05,30,6.00
2016,06,17,05,31,6.00
2016,06,17,05,32,6.00
2016,06,17,05,33,5.90
2016,06,17,05,34,5.90
2016,06,17,05,35,5.90
2016,06,17,05,36,5.90
2016,06,17,05,37,5.90
2016,06,17,05,38,5.90
2016,06,17,05,39,5.90
2016,06,17,05,40,5.90
2016,06,17,05,41,5.90
2016,06,17,05,42,5.90
2016,06,17,05,43,5.90
2016,06,17,05,44,5.90
2016,06,17,05,45,6.00
2016,06,17,05,46,5.90
2016,06,17,05,47,6.00
2016,06,17,05,48,6.00
2016,06,17,05,49,6.00
2016,06,17,05,50,6.00
2016,06,17,05,51,6.00
2016,06,17,05,52,6.00
2016,06,17,05,53,6.00
2016,06,17,05,54,6.00
2016,06,17,05,55,6.00
2016,06,17,05,56,6.00
2016,06,17,05,57,6.00
2016,06,17,05,58,6.00
2016,06,17,05,59,6.00
2016,06,17,06,00,6.10
2016,06,17,06,01,6.10
2016,06,17,06,02,6.10
2016,06,17,06,03,6.10
2016,06,17,06,04,6.20
2016,06,17,06,05,6.20
2016,06,17,06,06,6.20
2016,06,17,06,07,6.30
2016,06,17,06,08,6.30
2016,06,17,06,09,6.40
2016,06,17,06,10,6.50
2016,06,17,06,11,6.60
2016,06,17,06,12,6.60
2016,06,17,06,13,6.70
2016,06,17,06,14,6.70
2016,06,17,06,15,6.70
2016,06,17,06,16,6.80
2016,06,17,06,17,6.80
2016,06,17,06,18,6.90
2016,06,17,06,19,6.90
2016,06,17,06,20,7.00
2016,06,17,06,21,7.00
2016,06,17,06,22,7.10
2016,06,17,06,23,7.10
2016,06,17,06,24,7.20
2016,06,17,06,25,7.20
2016,06,17,06,26,7.30
2016,06,17,06,27,7.30
2016,06,17,06,28,7.40
2016,06,17,06,29,7.40
2016,06,17,06,30,7.50
2016,06,17,06,31,7.60
2016,06,17,06,32,7.70
2016,06,17,06,33,7.80
2016,06,17,06,34,7.80
2016,06,17,06,35,7.90
2016,06,17,06,36,8.00
2016,06,17,06,37,8.10
2016,06,17,06,38,8.20
2016,06,17,06,39,8.30
2016,06,17,06,40,8.40
2016,06,17,06,41,8.50
2016,06,17,06,42,8.70
2016,06,17,06,43,8.70
2016,06,17,06,44,8.80
2016,06,17,06,45,8.90
2016,06,17,06,46,9.00
2016,06,17,06,47,9.00
2016,06,17,06,48,9.10
2016,06,17,06,49,9.20
2016,06,17,06,50,9.30
2016,06,17,06,51,9.30
2016,06,17,06,52,9.40
2016,06,17,06,53,9.50
2016,06,17,06,54,9.60
2016,06,17,06,55,9.70
2016,06,17,06,56,9.70
2016,06,17,06,57,9.80
2016,06,17,06,58,9.90
2016,06,17,06,59,10.00
2016,06,17,07,00,10.10
2016,06,17,07,01,10.20
2016,06,17,07,02,10.30
2016,06,17,07,03,10.40
2016,06,17,07,04,10.50
2016,06,17,07,05,10.60
2016,06,17,07,06,10.70
2016,06,17,07,07,10.80
2016,06,17,07,08,10.80
2016,06,17,07,09,10.90
2016,06,17,07,10,10.90
2016,06,17,07,11,11.00
2016,06,17,07,12,11.10
2016,06,17,07,13,11.10
2016,06,17,07,14,11.20
2016,06,17,07,15,11.20
2016,06,17,07,16,11.30
2016,06,17,07,17,11.30
2016,06,17,07,18,11.40
2016,06,17,07,19,11.40
2016,06,17,07,20,11.50
2016,06,17,07,21,11.60
2016,06,17,07,22,11.70
2016,06,17,07,23,11.70
2016,06,17,07,24,11.80
2016,06,17,07,25,11.90
2016,06,17,07,26,11.90
2016,06,17,07,27,12.00
2016,06,17,07,28,12.00
2016,06,17,07,29,12.10
2016,06,17,07,30,12.20
2016,06,17,07,31,12.20
2016,06,17,07,32,12.30
2016,06,17,07,33,12.30
2016,06,17,07,34,12.40
2016,06,17,07,35,12.50
2016,06,17,07,36,12.60
2016,06,17,07,37,12.70
2016,06,17,07,38,12.80
2016,06,17,07,39,12.90
2016,06,17,07,40,13.00
2016,06,17,07,41,13.10
2016,06,17,07,42,13.10
2016,06,17,07,43,13.10
2016,06,17,07,44,13.20
2016,06,17,07,45,13.20
2016,06,17,07,46,13.30
2016,06,17,07,47,13.30
2016,06,17,07,48,13.30
2016,06,17,07,49,13.30
2016,06,17,07,50,13.40
2016,06,17,07,51,13.40
2016,06,17,07,52,13.50
2016,06,17,07,53,13.60
2016,06,17,07,54,13.60
2016,06,17,07,55,13.70
2016,06,17,07,56,13.70
2016,06,17,07,57,13.80
2016,06,17,07,58,13.90
2016,06,17,07,59,13.90
2016,06,17,08,00,14.00
2016,06,17,08,01,14.00
2016,06,17,08,02,14.00
2016,06,17,08,03,14.00
2016,06,17,08,04,14.00
2016,06,17,08,05,14.00
2016,06,17,08,06,14.00
2016,06,17,08,07,14.00
2016,06,17,08,08,14.10
2016,06,17,08,09,14.20
2016,06,17,08,10,14.20
2016,06,17,08,11,14.30
2016,06,17,08,12,14.30
2016,06,17,08,13,14.30
2016,06,17,08,14,14.40
2016,06,17,08,15,14.40
2016,06,17,08,16,14.50
2016,06,17,08,17,14.50
2016,06,17,08,18,14.60
2016,06,17,08,19,14.60
2016,06,17,08,20,14.60
2016,06,17,08,21,14.60
2016,06,17,08,22,14.70
2016,06,17,08,23,14.70
2016,06,17,08,24,14.80
2016,06,17,08,25,14.80
2016,06,17,08,26,14.80
2016,06,17,08,27,14.80
2016,06,17,08,28,14.80
2016,06,17,08,29,14.80
2016,06,17,08,30,14.80
2016,06,17,08,31,14.90
2016,06,17,08,32,14.90
2016,06,17,08,33,14.90
2016,06,17,08,34,15.00
2016,06,17,08,35,15.00
2016,06,17,08,36,15.00
2016,06,17,08,37,15.00
2016,06,17,08,38,15.00
2016,06,17,08,39,15.00
2016,06,17,08,40,15.00
2016,06,17,08,41,15.10
2016,06,17,08,42,15.10
2016,06,17,08,43,15.10
2016,06,17,08,44,15.10
2016,06,17,08,45,15.10
2016,06,17,08,46,15.20
2016,06,17,08,47,15.20
2016,06,17,08,48,15.10
2016,06,17,08,49,15.10
2016,06,17,08,50,15.10
2016,06,17,08,51,15.10
2016,06,17,08,52,15.10
2016,06,17,08,53,15.10
2016,06,17,08,54,15.10
2016,06,17,08,55,15.10
2016,06,17,08,56,15.20
2016,06,17,08,57,15.20
2016,06,17,08,58,15.20
2016,06,17,08,59,15.20
2016,06,17,09,00,15.20
2016,06,17,09,01,15.20
2016,06,17,09,02,15.20
2016,06,17,09,03,15.20
2016,06,17,09,04,15.30
2016,06,17,09,05,15.30
2016,06,17,09,06,15.40
2016,06,17,09,07,15.40
2016,06,17,09,08,15.50
2016,06,17,09,09,15.50
2016,06,17,09,10,15.40
2016,06,17,09,11,15.40
2016,06,17,09,12,15.30
2016,06,17,09,13,15.30
2016,06,17,09,14,15.20
2016,06,17,09,15,15.20
2016,06,17,09,16,15.10
2016,06,17,09,17,15.10
2016,06,17,09,18,15.00
2016,06,17,09,19,15.00
2016,06,17,09,20,15.00
2016,06,17,09,21,15.00
2016,06,17,09,22,15.10
2016,06,17,09,23,15.20
2016,06,17,09,24,15.20
2016,06,17,09,25,15.30
2016,06,17,09,26,15.30
2016,06,17,09,27,15.30
2016,06,17,09,28,15.40
2016,06,17,09,29,15.40
2016,06,17,09,30,15.30
2016,06,17,09,31,15.30
2016,06,17,09,32,15.30
2016,06,17,09,33,15.30
2016,06,17,09,34,15.30
2016,06,17,09,35,15.20
2016,06,17,09,36,15.10
2016,06,17,09,37,15.10
2016,06,17,09,38,15.10
2016,06,17,09,39,15.20
2016,06,17,09,40,15.20
2016,06,17,09,41,15.20
2016,06,17,09,42,15.30
2016,06,17,09,43,15.30
2016,06,17,09,44,15.40
2016,06,17,09,45,15.40
2016,06,17,09,46,15.40
2016,06,17,09,47,15.30
2016,06,17,09,48,15.30
2016,06,17,09,49,15.40
2016,06,17,09,50,15.40
2016,06,17,09,51,15.30
2016,06,17,09,52,15.30
2016,06,17,09,53,15.30
2016,06,17,09,54,15.30
2016,06,17,09,55,15.30
2016,06,17,09,56,15.40
2016,06,17,09,57,15.40
2016,06,17,09,58,15.40
2016,06,17,09,59,15.40
2016,06,17,10,00,15.40
2016,06,17,10,01,15.40
2016,06,17,10,02,15.40
2016,06,17,10,03,15.50
2016,06,17,10,04,15.50
2016,06,17,10,05,15.60
2016,06,17,10,06,15.60
2016,06,17,10,07,15.70
2016,06,17,10,08,15.70
2016,06,17,10,09,15.70
2016,06,17,10,10,15.70
2016,06,17,10,11,15.60
2016,06,17,10,12,15.50
2016,06,17,10,13,15.40
2016,06,17,10,14,15.40
2016,06,17,10,15,15.30
2016,06,17,10,16,15.30
2016,06,17,10,17,15.40
2016,06,17,10,18,15.50
2016,06,17,10,19,15.50
2016,06,17,10,20,15.60
2016,06,17,10,21,15.70
2016,06,17,10,22,15.60
2016,06,17,10,23,15.60
2016,06,17,10,24,15.70
2016,06,17,10,25,15.80
2016,06,17,10,26,15.80
2016,06,17,10,27,15.80
2016,06,17,10,28,15.70
2016,06,17,10,29,15.70
2016,06,17,10,30,15.70
2016,06,17,10,31,15.70
2016,06,17,10,32,15.70
2016,06,17,10,33,15.80
2016,06,17,10,34,15.90
2016,06,17,10,35,15.90
2016,06,17,10,36,15.90
2016,06,17,10,37,15.90
2016,06,17,10,38,15.90
2016,06,17,10,39,15.90
2016,06,17,10,40,15.90
2016,06,17,10,41,15.90
2016,06,17,10,42,15.80
2016,06,17,10,43,15.80
2016,06,17,10,44,15.80
2016,06,17,10,45,15.80
2016,06,17,10,46,15.80
2016,06,17,10,47,15.80
2016,06,17,10,48,15.90
2016,06,17,10,49,15.90
2016,06,17,10,50,15.90
2016,06,17,10,51,15.90
2016,06,17,10,52,15.90
2016,06,17,10,53,16.00
2016,06,17,10,54,16.00
2016,06,17,10,55,16.00
2016,06,17,10,56,16.00
2016,06,17,10,57,16.00
2016,06,17,10,58,16.00
2016,06,17,10,59,16.00
2016,06,17,11,00,16.00
2016,06,17,11,01,15.90
2016,06,17,11,02,16.00
2016,06,17,11,03,16.00
2016,06,17,11,04,16.00
2016,06,17,11,05,16.00
2016,06,17,11,06,16.00
2016,06,17,11,07,15.90
2016,06,17,11,08,15.90
2016,06,17,11,09,16.00
2016,06,17,11,10,16.00
2016,06,17,11,11,16.00
2016,06,17,11,12,16.00
2016,06,17,11,13,15.90
2016,06,17,11,14,15.90
2016,06,17,11,15,15.90
2016,06,17,11,16,15.90
2016,06,17,11,17,16.00
2016,06,17,11,18,16.00
2016,06,17,11,19,16.10
2016,06,17,11,20,16.20
2016,06,17,11,21,16.30
2016,06,17,11,22,16.30
2016,06,17,11,23,16.30
2016,06,17,11,24,16.30
2016,06,17,11,25,16.30
2016,06,17,11,26,16.30
2016,06,17,11,27,16.30
2016,06,17,11,28,16.30
2016,06,17,11,29,16.30
2016,06,17,11,30,16.30
2016,06,17,11,31,16.40
2016,06,17,11,32,16.40
2016,06,17,11,33,16.40
2016,06,17,11,34,16.40
2016,06,17,11,35,16.40
2016,06,17,11,36,16.40
2016,06,17,11,37,16.50
2016,06,17,11,38,16.60
2016,06,17,11,39,16.70
2016,06,17,11,40,16.70
2016,06,17,11,41,16.60
2016,06,17,11,42,16.60
2016,06,17,11,43,16.60
2016,06,17,11,44,16.60
2016,06,17,11,45,16.60
2016,06,17,11,46,16.60
2016,06,17,11,47,16.60
2016,06,17,11,48,16.70
2016,06,17,11,49,16.70
2016,06,17,11,50,16.70
2016,06,17,11,51,16.70
2016,06,17,11,52,16.60
2016,06,17,11,53,16.60
2016,06,17,11,54,16.60
2016,06,17,11,55,16.60
2016,06,17,11,56,16.60
2016,06,17,11,57,16.60
2016,06,17,11,58,16.60
2016,06,17,11,59,16.50
2016,06,17,12,00,16.50
2016,06,17,12,01,16.40
2016,06,17,12,02,16.40
2016,06,17,12,03,16.40
2016,06,17,12,04,16.40
2016,06,17,12,05,16.50
2016,06,17,12,06,16.60
2016,06,17,12,07,16.60
2016,06,17,12,08,16.60
2016,06,17,12,09,16.60
2016,06,17,12,10,16.70
2016,06,17,12,11,16.70
2016,06,17,12,12,16.80
2016,06,17,12,13,16.80
2016,06,17,12,14,16.90
2016,06,17,12,15,16.90
2016,06,17,12,16,16.90
2016,06,17,12,17,16.90
2016,06,17,12,18,17.00
2016,06,17,12,19,17.00
2016,06,17,12,20,17.10
2016,06,17,12,21,17.10
2016,06,17,12,22,17.00
2016,06,17,12,23,17.00
2016,06,17,12,24,17.00
2016,06,17,12,25,17.10
2016,06,17,12,26,17.10
2016,06,17,12,27,17.20
2016,06,17,12,28,17.30
2016,06,17,12,29,17.30
2016,06,17,12,30,17.30
2016,06,17,12,31,17.30
2016,06,17,12,32,17.30
2016,06,17,12,33,17.30
2016,06,17,12,34,17.30
2016,06,17,12,35,17.30
2016,06,17,12,36,17.40
2016,06,17,12,37,17.50
2016,06,17,12,38,17.50
2016,06,17,12,39,17.50
2016,06,17,12,40,17.50
2016,06,17,12,41,17.50
2016,06,17,12,42,17.40
2016,06,17,12,43,17.40
2016,06,17,12,44,17.50
2016,06,17,12,45,17.50
2016,06,17,12,46,17.60
2016,06,17,12,47,17.70
2016,06,17,12,48,17.70
2016,06,17,12,49,17.80
2016,06,17,12,50,17.90
2016,06,17,12,51,17.90
2016,06,17,12,52,18.10
2016,06,17,12,53,18.20
2016,06,17,12,54,18.20
2016,06,17,12,55,18.10
2016,06,17,12,56,18.10
2016,06,17,12,57,18.10
2016,06,17,12,58,18.10
2016,06,17,12,59,18.10
2016,06,17,13,00,18.00
2016,06,17,13,01,17.90
2016,06,17,13,02,17.90
2016,06,17,13,03,17.90
2016,06,17,13,04,17.90
2016,06,17,13,05,17.90
2016,06,17,13,06,18.00
2016,06,17,13,07,17.90
2016,06,17,13,08,18.00
2016,06,17,13,09,18.10
2016,06,17,13,10,18.10
2016,06,17,13,11,18.20
2016,06,17,13,12,18.30
2016,06,17,13,13,18.40
2016,06,17,13,14,18.40
2016,06,17,13,15,18.50
2016,06,17,13,16,18.50
2016,06,17,13,17,18.60
2016,06,17,13,18,18.70
2016,06,17,13,19,18.60
2016,06,17,13,20,18.60
2016,06,17,13,21,18.50
2016,06,17,13,22,18.40
2016,06,17,13,23,18.40
2016,06,17,13,24,18.30
2016,06,17,13,25,18.20
2016,06,17,13,26,18.10
2016,06,17,13,27,18.00
2016,06,17,13,28,18.00
2016,06,17,13,29,18.10
2016,06,17,13,30,18.20
2016,06,17,13,31,18.40
2016,06,17,13,32,18.70
2016,06,17,13,33,18.80
2016,06,17,13,34,18.80
2016,06,17,13,35,18.80
2016,06,17,13,36,18.80
2016,06,17,13,37,18.90
2016,06,17,13,38,19.00
2016,06,17,13,39,19.00
2016,06,17,13,40,19.10
2016,06,17,13,41,19.20
2016,06,17,13,42,19.30
2016,06,17,13,43,19.30
2016,06,17,13,44,19.20
2016,06,17,13,45,19.10
2016,06,17,13,46,19.10
2016,06,17,13,47,19.10
2016,06,17,13,48,19.10
2016,06,17,13,49,19.10
2016,06,17,13,50,19.00
2016,06,17,13,51,18.90
2016,06,17,13,52,18.90
2016,06,17,13,53,18.80
2016,06,17,13,54,18.70
2016,06,17,13,55,18.70
2016,06,17,13,56,18.60
2016,06,17,13,57,18.60
2016,06,17,13,58,18.60
2016,06,17,13,59,18.70
2016,06,17,14,00,18.70
2016,06,17,14,01,18.70
2016,06,17,14,02,18.70
2016,06,17,14,03,18.60
2016,06,17,14,04,18.60
2016,06,17,14,05,18.70
2016,06,17,14,06,18.70
2016,06,17,14,07,18.70
2016,06,17,14,08,18.80
2016,06,17,14,09,18.90
2016,06,17,14,10,18.90
2016,06,17,14,11,18.90
2016,06,17,14,12,18.80
2016,06,17,14,13,18.80
2016,06,17,14,14,18.80
2016,06,17,14,15,18.80
2016,06,17,14,16,18.80
2016,06,17,14,17,18.80
2016,06,17,14,18,18.90
2016,06,17,14,19,18.90
2016,06,17,14,20,18.90
2016,06,17,14,21,18.80
2016,06,17,14,22,18.90
2016,06,17,14,23,19.00
2016,06,17,14,24,19.10
2016,06,17,14,25,19.20
2016,06,17,14,26,19.20
2016,06,17,14,27,19.20
2016,06,17,14,28,19.20
2016,06,17,14,29,19.20
2016,06,17,14,30,19.20
2016,06,17,14,31,19.20
2016,06,17,14,32,19.20
2016,06,17,14,33,19.20
2016,06,17,14,34,19.20
2016,06,17,14,35,19.20
2016,06,17,14,36,19.30
2016,06,17,14,37,19.30
2016,06,17,14,38,19.30
2016,06,17,14,39,19.30
2016,06,17,14,40,19.30
2016,06,17,14,41,19.20
2016,06,17,14,42,19.20
2016,06,17,14,43,19.20
2016,06,17,14,44,19.30
2016,06,17,14,45,19.30
2016,06,17,14,46,19.30
2016,06,17,14,47,19.30
2016,06,17,14,48,19.30
2016,06,17,14,49,19.30
2016,06,17,14,50,19.30
2016,06,17,14,51,19.30
2016,06,17,14,52,19.30
2016,06,17,14,53,19.30
2016,06,17,14,54,19.30
2016,06,17,14,55,19.30
2016,06,17,14,56,19.30
2016,06,17,14,57,19.20
2016,06,17,14,58,19.10
2016,06,17,14,59,19.00
2016,06,17,15,00,19.00
2016,06,17,15,01,19.00
2016,06,17,15,02,18.90
2016,06,17,15,03,18.90
2016,06,17,15,04,18.90
2016,06,17,15,05,18.90
2016,06,17,15,06,18.90
2016,06,17,15,07,18.90
2016,06,17,15,08,18.90
2016,06,17,15,09,18.90
2016,06,17,15,10,18.90
2016,06,17,15,11,19.00
2016,06,17,15,12,19.10
2016,06,17,15,13,19.10
2016,06,17,15,14,19.20
2016,06,17,15,15,19.20
2016,06,17,15,16,19.20
2016,06,17,15,17,19.20
2016,06,17,15,18,19.20
2016,06,17,15,19,19.10
2016,06,17,15,20,19.00
2016,06,17,15,21,18.90
2016,06,17,15,22,18.90
2016,06,17,15,23,18.90
2016,06,17,15,24,19.00
2016,06,17,15,25,19.00
2016,06,17,15,26,19.10
2016,06,17,15,27,19.10
2016,06,17,15,28,19.10
2016,06,17,15,29,19.10
2016,06,17,15,30,19.10
2016,06,17,15,31,19.10
2016,06,17,15,32,19.10
2016,06,17,15,33,19.00
2016,06,17,15,34,19.00
2016,06,17,15,35,19.10
2016,06,17,15,36,19.10
2016,06,17,15,37,19.10
2016,06,17,15,38,19.10
2016,06,17,15,39,19.10
2016,06,17,15,40,19.10
2016,06,17,15,41,19.20
2016,06,17,15,42,19.10
2016,06,17,15,43,19.10
2016,06,17,15,44,19.20
2016,06,17,15,45,19.20
2016,06,17,15,46,19.20
2016,06,17,15,47,19.20
2016,06,17,15,48,19.20
2016,06,17,15,49,19.20
2016,06,17,15,50,19.20
2016,06,17,15,51,19.20
2016,06,17,15,52,19.20
2016,06,17,15,53,19.10
2016,06,17,15,54,19.10
2016,06,17,15,55,19.20
2016,06,17,15,56,19.20
2016,06,17,15,57,19.20
2016,06,17,15,58,19.20
2016,06,17,15,59,19.30
2016,06,17,16,00,19.30
2016,06,17,16,01,19.20
2016,06,17,16,02,19.20
2016,06,17,16,03,19.20
2016,06,17,16,04,19.20
2016,06,17,16,05,19.20
2016,06,17,16,06,19.20
2016,06,17,16,07,19.20
2016,06,17,16,08,19.20
2016,06,17,16,09,19.20
2016,06,17,16,10,19.20
2016,06,17,16,11,19.20
2016,06,17,16,12,19.20
2016,06,17,16,13,19.20
2016,06,17,16,14,19.20
2016,06,17,16,15,19.20
2016,06,17,16,16,19.20
2016,06,17,16,17,19.20
2016,06,17,16,18,19.20
2016,06,17,16,19,19.30
2016,06,17,16,20,19.30
2016,06,17,16,21,19.30
2016,06,17,16,22,19.30
2016,06,17,16,23,19.30
2016,06,17,16,24,19.30
2016,06,17,16,25,19.30
2016,06,17,16,26,19.20
2016,06,17,16,27,19.20
2016,06,17,16,28,19.20
2016,06,17,16,29,19.10
2016,06,17,16,30,19.10
2016,06,17,16,31,19.20
2016,06,17,16,32,19.20
2016,06,17,16,33,19.20
2016,06,17,16,34,19.20
2016,06,17,16,35,19.20
2016,06,17,16,36,19.20
2016,06,17,16,37,19.20
2016,06,17,16,38,19.30
2016,06,17,16,39,19.30
2016,06,17,16,40,19.30
2016,06,17,16,41,19.40
2016,06,17,16,42,19.40
2016,06,17,16,43,19.40
2016,06,17,16,44,19.40
2016,06,17,16,45,19.40
2016,06,17,16,46,19.40
2016,06,17,16,47,19.40
2016,06,17,16,48,19.40
2016,06,17,16,49,19.50
2016,06,17,16,50,19.50
2016,06,17,16,51,19.50
2016,06,17,16,52,19.40
2016,06,17,16,53,19.40
2016,06,17,16,54,19.40
2016,06,17,16,55,19.40
2016,06,17,16,56,19.30
2016,06,17,16,57,19.30
2016,06,17,16,58,19.30
2016,06,17,16,59,19.30
2016,06,17,17,00,19.30
2016,06,17,17,01,19.30
2016,06,17,17,02,19.20
2016,06,17,17,03,19.20
2016,06,17,17,04,19.20
2016,06,17,17,05,19.20
2016,06,17,17,06,19.20
2016,06,17,17,07,19.20
2016,06,17,17,08,19.20
2016,06,17,17,09,19.20
2016,06,17,17,10,19.20
2016,06,17,17,11,19.20
2016,06,17,17,12,19.10
2016,06,17,17,13,19.10
2016,06,17,17,14,19.10
2016,06,17,17,15,19.10
2016,06,17,17,16,19.10
2016,06,17,17,17,19.10
2016,06,17,17,18,19.10
2016,06,17,17,19,19.10
2016,06,17,17,20,19.10
2016,06,17,17,21,19.10
2016,06,17,17,22,19.20
2016,06,17,17,23,19.20
2016,06,17,17,24,19.10
2016,06,17,17,25,19.00
2016,06,17,17,26,19.00
2016,06,17,17,27,18.90
2016,06,17,17,28,18.90
2016,06,17,17,29,18.80
2016,06,17,17,30,18.80
2016,06,17,17,31,18.80
2016,06,17,17,32,18.80
2016,06,17,17,33,18.70
2016,06,17,17,34,18.60
2016,06,17,17,35,18.40